Location: Béaulencourt
(50.0796°N, 2.8795°E)
Time: 12:47:40
(UTC+00:00)

Dummy Sat-02 - Pass Details

Date: 29 April 2026
Orbit: 472 x 483 km, 86.3° (Epoch: 12 May)

Event Time Altitude Azimuth Distance (km) Brightness Sun altitude
Rises 20:00:02 0° 198° (SSW) 2,519 8.0 -8.6°
Reaches altitude 10° 20:02:10 10° 204° (SSW) 1,644 7.1 -8.8°
Maximum altitude 20:05:36 44° 278° (W) 671 5.8 -9.3°
Drops below altitude 10° 20:09:04 10° 352° (N) 1,653 8.0 -9.7°
Sets 20:11:13 0° 359° (N) 2,536 8.8 -10.0°
